This is the latest recevied weather packets stored in our database for station/object NZ3C. If no packets are shown the sender has not sent any weather packets the latest 1 day(s).
| Time | Temp. | Humidity | Pressure | Rain* | Wind** | Luminosity | Snow |
|---|---|---|---|---|---|---|---|
| 1778032436 | 19.44° C | 68% | 1017.8 hPa | 0 mm | 1.34 m/s, 76° | 0 W/m² | - |
| 1778032133 | 19.44° C | 68% | 1017.8 hPa | 0 mm | 2.24 m/s, 195° | 0 W/m² | - |
| 1778031830 | 20° C | 68% | 1017.5 hPa | 0 mm | 1.34 m/s, 217° | 0 W/m² | - |
| 1778031526 | 20° C | 68% | 1017.5 hPa | 0 mm | 0.89 m/s, 298° | 0 W/m² | - |
| 1778031224 | 20° C | 67% | 1017.4 hPa | 0 mm | 0.45 m/s, 304° | 0 W/m² | - |
| 1778030920 | 20° C | 67% | 1017.4 hPa | 0 mm | 2.24 m/s, 117° | 0 W/m² | - |
| 1778030617 | 20° C | 67% | 1017.4 hPa | 0 mm | 0.45 m/s, 288° | 0 W/m² | - |
| 1778030314 | 20° C | 67% | 1017.2 hPa | 0 mm | 0.45 m/s, 279° | 0 W/m² | - |
| 1778030011 | 20° C | 67% | 1017.4 hPa | 0 mm | 0.89 m/s, 26° | 0 W/m² | - |
| 1778029709 | 20.56° C | 66% | 1017.1 hPa | 0 mm | 0.89 m/s, 30° | 0 W/m² | - |
| 1778029406 | 20.56° C | 66% | 1017.1 hPa | 0 mm | 1.34 m/s, 9° | 0 W/m² | - |
| 1778029103 | 20.56° C | 66% | 1017.3 hPa | 0 mm | 1.34 m/s, 350° | 0 W/m² | - |
| 1778028800 | 20.56° C | 66% | 1017.2 hPa | 0 mm | 0.89 m/s, 321° | 0 W/m² | - |
| 1778028496 | 21.11° C | 65% | 1016.9 hPa | 0 mm | 0.45 m/s, 173° | 0 W/m² | - |
| 1778028194 | 21.11° C | 64% | 1017.1 hPa | 0 mm | 1.34 m/s, 129° | 0 W/m² | - |
| 1778027889 | 21.11° C | 64% | 1016.8 hPa | 0 mm | 0.89 m/s, 56° | 0 W/m² | - |
| 1778027586 | 21.11° C | 63% | 1016.7 hPa | 0 mm | 0.89 m/s, 102° | 0 W/m² | - |
| 1778027282 | 21.67° C | 63% | 1016.8 hPa | 0 mm | 1.79 m/s, 83° | 0 W/m² | - |
| 1778026979 | 21.67° C | 62% | 1016.5 hPa | 0 mm | 0.89 m/s, 298° | 0 W/m² | - |
| 1778026674 | 21.67° C | 61% | 1016.7 hPa | 0 mm | 1.34 m/s, 109° | 0 W/m² | - |
| 1778026372 | 22.22° C | 61% | 1016.5 hPa | 0 mm | 0.89 m/s, 63° | 1 W/m² | - |
| 1778026069 | 22.22° C | 60% | 1016.5 hPa | 0 mm | 2.68 m/s, 93° | 2 W/m² | - |
| 1778025766 | 22.22° C | 60% | 1016.5 hPa | 0 mm | 1.79 m/s, 256° | 3 W/m² | - |
| 1778025463 | 22.78° C | 59% | 1016.5 hPa | 0 mm | 2.68 m/s, 211° | 6 W/m² | - |
| 1778025161 | 22.78° C | 59% | 1016.5 hPa | 0 mm | 0.89 m/s, 285° | 10 W/m² | - |
* Rain latest hour (hover to see other rain measurements)
** Current wind speed in m/s (hover to see current wind gust speed)